Wind_Speed
27 27 26 25 23 23 22 21 20 20 20 19 18 16 15 14 13 12 12 13 14 16 17 17 17 16 15 14 14 13 13 13 13 13 13 13 13 14 14 13 13 12 12 11 12 13 13 13 14 15 14 15 15 14 14 14 13 12 13 16 18 20 20 19 19 19 19 20 19 19 18 17 18 18 18 18 19 20 19 18 17 18 19 19 19
29 28 26 25 23 22 22 21 20 20 20 20 19 17 16 15 14 13 13 13 13 15 16 16 16 16 15 15 14 14 13 13 13 12 12 13 13 13 14 13 13 12 12 12 11 12 12 13 13 14 14 14 14 15 15 14 13 13 15 18 19 19 19 19 18 18 18 19 18 17 17 16 16 16 17 18 19 19 19 18 17 18 19 19 20
29 28 26 25 23 22 22 21 20 20 21 20 19 18 17 16 15 14 13 13 13 14 15 15 16 16 15 15 15 14 14 13 12 12 11 12 13 13 13 13 12 12 12 12 11 11 11 12 13 14 14 14 14 15 15 14 13 14 17 18 18 19 18 18 17 17 17 18 17 17 16 16 15 15 17 18 19 19 18 17 17 17 18 19 20
28 28 27 25 24 22 21 21 21 21 21 20 20 19 18 16 15 14 13 13 13 14 14 14 14 15 15 15 14 14 13 13 12 11 11 12 13 13 13 12 11 12 12 12 11 10 10 10 12 13 14 14 14 15 15 14 13 15 18 18 18 18 17 17 16 16 17 18 17 17 16 16 15 15 16 17 18 18 18 17 17 16 17 18 19
27 27 26 25 23 21 20 20 20 20 21 21 21 20 18 17 15 14 13 13 13 13 14 14 14 14 14 14 14 14 13 12 11 11 11 11 12 13 12 12 11 12 12 11 10 9 9 10 11 12 13 14 14 15 15 15 14 15 17 17 18 18 17 16 16 16 17 18 17 17 16 15 15 15 15 16 16 17 17 17 17 16 16 17 18
27 26 25 24 22 21 20 19 19 20 21 22 22 21 19 17 16 14 14 13 13 13 13 13 13 13 13 13 13 13 12 12 11 11 11 11 12 12 12 11 11 13 14 12 10 8 8 10 11 12 13 14 15 15 15 15 15 15 16 17 17 17 17 16 15 15 16 17 17 17 16 15 15 15 14 15 15 15 16 16 16 16 16 16 18
27 26 25 24 22 21 20 19 19 21 22 22 22 20 19 17 16 14 14 13 13 13 13 13 13 13 13 13 13 12 12 12 11 11 12 13 12 12 12 11 10 13 16 15 13 10 8 9 10 11 12 14 14 15 15 15 15 15 16 16 16 16 16 15 15 15 14 15 16 16 15 15 15 15 14 14 14 14 15 15 15 15 16 16 17
27 26 26 24 23 21 19 19 20 22 23 23 21 20 19 17 15 14 14 13 13 12 13 13 13 13 13 13 13 12 12 12 12 12 13 14 13 12 12 9 9 12 14 15 13 12 11 10 8 10 13 13 14 15 15 15 14 14 15 15 15 15 15 15 15 14 13 14 14 15 14 15 14 14 14 13 13 13 13 14 15 15 15 16 17
27 27 26 24 23 22 20 20 21 23 23 23 21 19 18 16 15 14 13 13 12 12 12 12 13 14 14 13 13 12 12 12 13 14 14 14 14 13 11 8 9 12 14 14 13 12 13 12 9 10 13 13 13 14 15 15 14 13 14 15 15 15 15 14 15 14 13 13 13 13 13 13 13 13 13 12 11 11 12 13 14 15 15 15 16
27 26 25 24 23 22 21 21 21 22 23 22 21 19 17 16 15 14 13 12 12 12 12 12 13 14 15 15 14 13 12 13 14 14 13 13 13 12 10 8 8 9 12 13 13 12 10 11 10 11 13 13 13 13 15 15 13 12 12 15 17 16 16 14 14 14 12 12 12 12 12 12 12 11 11 10 9 10 10 11 13 14 14 15 16
27 26 24 23 23 21 21 20 21 21 22 22 21 19 17 15 14 13 12 11 12 12 12 13 13 14 15 15 14 13 13 13 13 13 12 12 11 11 9 7 7 8 10 11 11 11 9 8 9 11 14 13 12 13 14 14 13 11 10 12 16 16 15 14 13 13 12 12 11 10 10 10 10 10 10 10 9 8 9 10 11 12 13 14 15
27 26 24 23 22 20 20 20 21 21 22 21 20 19 17 15 14 13 12 12 12 12 12 12 13 14 15 15 13 13 12 12 12 12 11 11 10 9 8 7 6 8 9 10 10 10 9 8 8 9 12 13 12 13 13 12 11 10 9 9 14 15 13 13 12 12 11 11 11 10 9 9 9 9 9 9 8 7 8 8 9 11 12 13 14
28 27 25 23 21 20 19 19 19 21 20 19 19 17 16 15 14 13 12 12 12 12 12 12 13 14 14 14 13 12 12 11 11 12 11 10 9 8 7 6 7 8 8 9 10 10 9 8 8 9 11 12 12 13 12 12 10 9 9 7 12 13 12 11 11 11 11 11 10 9 8 8 8 8 8 8 7 7 7 7 8 10 11 12 13
29 27 25 23 21 19 17 17 17 18 17 17 17 16 15 15 15 14 13 12 12 12 12 12 12 13 14 14 13 12 12 11 11 12 12 10 8 7 6 6 6 7 8 9 9 10 9 7 8 9 10 11 12 13 12 12 10 9 8 6 9 11 10 9 9 9 9 11 10 9 8 7 7 7 7 6 6 6 7 6 7 8 10 11 12
28 26 23 22 21 18 15 14 16 16 16 16 16 16 15 15 15 14 13 13 12 12 12 12 13 13 13 13 13 13 12 11 11 11 11 9 8 7 6 6 6 7 7 8 8 9 8 7 7 8 10 12 13 13 13 12 11 9 8 6 8 9 9 8 7 8 8 9 9 8 7 6 6 6 6 5 5 5 5 5 5 6 8 10 11
26 24 23 22 21 19 17 15 16 16 16 15 15 16 16 16 14 14 14 13 12 12 12 13 13 13 13 13 13 13 12 11 10 9 9 8 7 7 6 6 6 6 6 7 7 7 8 7 7 8 10 13 14 14 13 12 11 10 9 7 7 9 9 8 7 7 8 9 8 8 7 6 5 5 5 5 5 5 5 4 4 5 6 8 9
25 24 23 22 21 20 19 17 16 16 15 15 15 16 16 15 14 14 14 13 12 12 13 13 13 13 13 12 12 12 11 10 9 8 7 7 7 7 7 6 6 5 4 5 6 6 6 7 7 8 10 13 14 14 14 13 12 11 10 8 7 8 8 8 7 6 7 9 8 7 7 5 5 5 4 4 4 4 4 3 4 4 5 6 7
25 24 23 21 20 20 20 18 17 17 17 17 17 17 16 16 15 14 13 13 13 13 13 13 12 12 12 12 11 10 10 8 8 7 7 7 7 7 6 5 4 4 3 4 4 4 5 5 6 6 8 11 14 15 15 14 13 12 10 9 7 7 8 8 7 6 7 9 8 7 6 5 4 4 3 3 3 3 3 2 2 4 4 4 5
24 23 22 21 20 20 20 19 19 19 19 19 18 18 17 16 15 14 14 14 14 14 13 13 12 12 11 11 10 10 9 8 8 7 7 7 7 6 5 4 4 3 2 3 3 3 4 4 5 5 7 9 12 15 15 15 14 13 11 9 7 6 7 8 7 7 8 9 8 7 6 5 4 3 2 2 2 2 2 1 1 1 2 2 3
24 23 22 20 20 21 21 20 21 21 20 19 18 18 16 16 15 15 16 15 15 14 13 12 12 11 11 11 10 9 8 8 8 7 7 7 6 5 4 3 3 3 2 1 1 2 3 3 4 5 6 7 10 13 16 16 15 14 12 9 7 5 6 8 8 7 8 9 8 7 6 5 4 2 1 1 1 1 2 0 0 1 0 1 1
24 23 21 20 21 21 22 22 23 22 21 20 20 18 16 16 16 16 16 14 14 13 13 12 12 11 10 10 9 8 7 7 7 7 7 6 5 4 3 3 3 3 2 1 0 1 2 4 5 5 6 7 9 11 15 16 15 14 12 10 7 6 7 8 9 8 8 8 7 6 6 4 3 2 1 1 0 1 1 1 1 2 2 1 0
23 22 18 18 19 19 20 21 22 22 21 21 20 19 17 16 16 16 15 14 14 13 12 11 11 10 9 10 8 7 6 6 6 6 6 5 5 4 4 3 3 3 2 1 1 2 3 4 6 6 6 8 10 11 13 16 16 15 13 11 8 7 7 8 8 7 7 7 6 5 4 3 2 1 0 1 1 2 2 3 3 3 3 2 1
20 19 17 16 16 16 18 19 20 21 21 20 19 18 16 16 16 16 14 13 11 10 10 9 9 8 8 8 7 6 5 5 5 5 5 5 5 5 5 4 4 3 3 2 2 3 3 4 5 5 6 8 11 11 12 14 16 16 14 12 9 7 6 6 7 7 7 6 5 4 3 2 2 2 1 1 2 3 3 4 4 4 4 4 3
19 18 15 15 14 14 16 19 19 19 18 17 17 16 14 14 14 14 12 10 9 8 8 8 7 7 6 6 6 5 5 4 4 4 3 4 5 6 6 5 4 4 3 2 2 3 2 2 3 5 6 8 11 11 11 12 14 15 14 13 11 9 6 5 5 6 6 5 4 3 1 2 3 3 2 2 2 3 4 5 5 5 5 5 4
19 16 13 15 16 15 16 18 18 17 16 15 15 14 13 12 11 11 10 9 8 8 8 7 6 6 6 5 5 5 4 4 4 3 4 4 5 6 6 5 5 4 3 2 2 2 2 3 3 6 7 8 11 12 10 10 12 14 13 13 12 10 7 5 4 4 5 5 4 3 0 2 4 4 3 2 3 4 5 5 5 6 6 5 5
16 18 15 18 19 17 17 18 18 17 16 14 13 12 11 10 9 9 8 8 8 7 7 6 6 5 5 5 5 5 5 5 5 5 5 5 5 6 6 5 5 4 3 2 2 3 3 3 4 6 8 9 11 12 11 10 10 12 12 12 12 11 9 6 4 3 4 5 5 3 0 2 3 4 4 3 3 4 5 6 6 6 6 6 6
17 18 19 22 21 19 19 19 18 18 16 14 13 12 11 9 8 8 7 7 6 6 5 5 5 5 5 5 5 6 6 6 7 7 6 5 6 6 6 6 5 4 3 2 2 3 3 4 4 7 9 9 10 11 10 9 9 10 10 10 10 11 10 7 5 4 4 5 4 2 1 1 3 3 3 3 3 4 5 5 6 6 6 6 6
20 20 23 24 23 21 19 19 19 17 16 14 14 12 10 9 8 8 7 7 6 6 5 5 6 6 6 6 6 7 7 6 7 8 7 7 7 7 6 6 5 5 4 3 2 3 3 4 4 6 9 10 10 10 9 9 9 9 9 9 9 10 10 8 6 5 4 4 3 2 0 1 2 3 3 3 3 3 3 4 5 6 7 7 6
25 25 26 25 24 22 20 20 19 17 16 15 14 12 10 9 9 8 8 8 7 7 6 7 7 7 7 7 7 7 8 7 8 9 9 7 7 7 7 6 6 6 6 4 3 4 4 4 4 6 9 10 11 10 9 9 9 9 8 8 8 9 9 9 7 6 5 5 3 1 0 1 2 3 3 2 3 2 2 3 4 5 7 7 7
26 26 25 24 25 24 24 21 18 17 16 15 13 12 11 10 8 8 9 9 8 8 8 8 8 8 8 8 8 8 9 9 8 9 9 8 7 7 7 7 7 8 7 5 4 4 5 5 4 5 9 10 12 11 9 9 9 9 8 8 8 8 9 9 8 7 6 6 4 2 2 2 2 2 3 3 3 2 2 2 4 5 6 7 7
25 24 24 24 26 27 25 20 17 16 15 14 12 11 10 9 9 9 10 9 9 9 8 8 8 8 8 8 8 9 9 9 9 8 7 7 7 7 7 7 8 8 7 6 5 4 5 6 5 6 9 10 11 12 10 9 9 9 8 7 7 8 9 9 8 7 7 7 5 3 3 2 2 1 2 2 2 2 2 3 3 4 4 5 6
24 24 24 24 26 26 22 18 17 15 14 13 11 10 9 9 9 9 9 9 9 10 9 8 7 7 7 6 7 8 8 8 8 8 7 7 6 6 7 7 7 7 7 6 6 6 6 8 8 8 9 10 11 11 11 11 10 10 10 8 8 8 8 8 7 6 6 6 5 5 3 2 2 1 1 1 2 2 2 2 2 3 3 4 5
24 24 24 25 25 21 18 17 16 14 12 11 9 9 9 9 10 10 9 9 9 10 8 7 7 6 6 6 7 7 7 7 8 7 6 6 6 7 7 6 6 6 6 6 6 6 7 9 9 9 9 10 11 11 11 11 11 11 11 10 8 8 7 7 6 5 6 6 5 5 5 4 3 2 1 1 1 1 2 1 1 1 2 3 4
25 25 23 23 20 15 15 16 15 13 11 10 10 10 10 10 10 10 9 9 9 9 7 7 6 6 6 7 6 6 6 6 6 6 6 7 7 7 6 6 6 7 7 6 6 6 7 8 9 10 10 10 11 12 12 12 12 11 11 10 9 8 8 7 7 6 6 5 5 6 6 5 4 3 1 0 1 1 1 1 2 1 0 1 1
26 23 19 16 15 14 15 15 14 13 12 11 11 10 9 9 9 9 8 8 8 7 6 6 5 6 6 6 5 6 6 5 6 6 7 8 8 7 6 6 6 7 8 8 7 7 8 8 8 9 10 11 11 12 12 12 12 12 11 11 10 9 8 8 9 10 9 7 7 7 7 7 6 4 2 1 0 0 0 1 1 1 1 1 0
24 20 16 16 16 15 14 14 14 13 13 12 10 9 9 8 8 8 7 7 7 6 6 5 5 6 6 5 5 6 6 6 6 7 8 9 9 9 7 7 7 8 9 9 9 8 8 9 8 8 8 10 12 12 12 12 12 12 12 12 11 10 9 8 8 10 11 11 10 9 8 8 7 6 4 3 1 1 1 0 1 1 1 1 1
20 17 16 19 18 16 14 13 13 12 12 11 9 9 8 8 7 7 7 6 6 6 6 5 5 5 5 5 5 6 6 5 7 9 9 9 9 10 9 9 8 9 10 10 10 9 10 10 9 9 8 9 11 11 12 12 12 12 12 12 12 11 10 9 8 8 9 11 11 11 10 9 9 8 7 5 4 3 2 1 2 2 1 1 1
20 18 18 20 19 16 15 14 12 12 11 10 9 9 8 8 7 7 7 5 5 6 5 5 4 4 4 4 4 3 4 4 6 8 9 9 9 9 9 10 10 10 10 11 11 11 11 11 10 9 9 10 11 11 12 12 12 12 12 12 12 11 10 9 9 8 9 9 11 12 12 11 11 10 10 8 7 6 4 3 3 3 3 2 1
23 21 21 22 19 17 16 14 13 12 12 11 9 8 8 7 7 6 5 4 4 4 3 3 2 1 2 2 1 1 1 2 4 5 6 7 8 8 8 8 9 10 11 12 11 11 12 12 11 11 10 10 11 11 12 12 12 12 12 12 12 11 11 10 9 8 9 9 10 12 12 12 12 11 11 10 10 9 7 5 5 4 4 3 3
23 22 23 22 20 18 16 15 15 13 12 11 9 8 7 7 6 5 3 2 2 2 1 1 1 1 1 2 2 1 1 0 1 3 4 5 6 7 7 7 8 9 10 11 11 12 13 12 12 11 11 11 11 11 11 12 11 11 12 12 12 11 11 11 10 9 9 10 11 11 12 12 12 12 12 12 12 11 10 8 7 6 5 4 4
23 22 23 21 18 18 17 16 15 14 13 10 7 6 5 4 3 3 3 2 1 1 1 1 1 1 2 3 2 2 1 0 1 2 3 3 4 5 5 6 6 7 8 8 9 12 13 13 13 13 13 12 11 10 10 10 11 12 12 11 11 11 11 12 12 11 10 10 11 11 12 13 13 13 13 12 13 13 12 11 10 8 7 6 5
25 24 25 21 18 19 19 17 16 15 12 9 6 5 3 3 3 4 4 3 1 1 1 1 1 1 3 4 3 2 2 2 2 2 3 3 4 4 5 5 6 6 6 6 6 8 10 11 13 13 13 12 10 10 9 10 12 12 12 11 11 11 10 11 11 11 11 11 11 11 12 13 12 11 12 12 14 14 14 14 13 12 10 9 8
29 28 27 23 20 21 21 19 17 15 12 9 7 5 3 3 3 4 4 3 2 2 2 2 1 2 4 4 4 2 1 3 3 3 3 2 2 2 3 3 2 3 3 4 4 4 6 8 10 11 11 10 8 8 8 10 12 12 11 11 12 11 10 10 11 12 12 12 11 11 13 13 12 11 11 13 14 13 14 15 16 15 14 12 10
31 31 30 26 23 24 23 21 20 16 12 10 8 6 5 4 5 5 4 3 3 3 4 2 1 2 3 3 2 2 1 2 2 2 1 0 1 1 2 1 1 1 1 1 1 1 2 3 5 7 8 8 7 7 7 8 9 10 9 9 10 10 9 9 10 12 12 13 13 14 15 14 13 12 12 13 13 12 12 14 15 15 15 14 13
32 32 32 28 25 25 25 23 21 17 12 11 9 8 7 6 7 6 5 5 5 5 4 2 1 2 2 2 1 1 2 3 2 2 1 1 1 1 2 2 2 1 1 1 2 2 2 2 3 3 4 6 7 6 6 6 8 9 9 8 7 7 8 7 6 7 8 10 11 13 15 14 12 12 12 14 14 12 12 13 13 14 15 14 14
33 32 31 28 25 25 26 25 22 16 12 11 11 10 9 8 8 6 4 4 4 4 4 2 2 2 1 1 1 0 2 2 2 1 0 1 1 1 3 3 2 1 1 1 2 2 2 2 2 3 3 3 3 5 6 7 8 9 10 10 7 5 6 6 4 4 5 6 7 9 11 12 10 10 11 11 11 11 11 12 12 13 13 13 14
32 31 29 26 24 26 28 27 21 15 11 11 12 12 11 9 8 5 1 1 2 3 3 3 2 2 2 2 1 1 1 1 1 0 1 1 1 2 4 3 2 1 1 1 0 1 2 3 3 3 4 5 4 1 3 6 8 9 10 10 9 5 5 5 5 4 4 4 5 6 8 9 9 9 9 8 9 9 10 10 12 12 9 9 12
30 27 25 24 25 27 29 25 18 12 11 13 14 14 12 10 8 5 2 1 1 2 2 2 2 2 3 2 1 0 0 1 1 2 2 1 2 3 4 4 3 2 1 0 1 2 4 4 3 2 2 4 5 5 3 0 4 6 8 9 8 7 7 7 6 5 4 4 5 5 7 8 9 10 9 8 9 9 9 10 12 13 10 9 10
24 22 22 23 25 23 22 20 15 12 14 15 15 14 12 10 7 5 4 3 3 3 3 3 3 2 2 2 0 1 1 2 3 3 2 1 3 4 4 5 5 5 4 3 2 1 0 0 1 1 1 2 3 5 5 4 3 1 2 3 3 4 6 5 4 5 5 5 4 5 5 5 7 9 9 9 8 7 8 8 8 9 9 9 9
19 19 20 22 23 18 16 18 17 15 17 17 16 14 12 10 8 6 6 5 5 4 4 4 3 2 1 1 1 1 1 2 3 3 3 3 4 4 5 6 7 8 8 9 8 7 6 5 4 3 3 3 2 2 3 3 4 5 4 4 3 3 4 5 3 3 3 5 6 6 6 4 5 5 5 6 5 5 5 5 4 5 6 7 7
15 17 17 18 18 16 16 19 18 18 19 18 17 16 13 12 10 8 7 5 4 4 5 4 2 2 2 1 1 1 2 3 3 4 5 4 4 4 4 5 6 8 9 9 10 10 10 9 8 7 6 4 3 2 1 1 2 3 4 4 4 4 5 5 4 4 4 4 6 9 9 7 6 6 5 4 4 3 2 2 2 3 4 6 7
Wind_Direction
172 174 174 170 170 171 171 173 175 176 175 175 173 170 167 162 157 151 142 137 137 141 144 145 146 146 145 143 141 140 139 138 136 138 141 142 143 146 148 148 146 140 140 139 133 132 137 138 141 143 139 134 132 131 130 129 122 113 112 109 103 98 93 90 86 84 83 81 79 79 78 76 77 80 81 82 82 81 82 82 83 82 78 74 68
169 173 175 172 172 172 173 174 176 178 178 178 174 172 169 166 161 155 148 141 139 140 142 143 144 144 142 140 139 138 136 133 131 133 138 144 146 148 149 149 149 145 141 137 133 129 133 137 139 142 142 139 137 136 136 134 126 116 114 110 105 101 96 92 89 87 86 83 81 79 79 79 79 82 84 84 83 81 81 81 82 82 78 73 68
168 171 175 173 174 175 175 176 178 180 179 179 176 174 171 167 162 158 152 145 142 142 143 141 141 140 139 138 138 137 134 131 128 130 135 143 147 147 147 148 149 145 140 136 133 130 130 134 139 142 144 142 140 141 141 137 130 122 116 111 108 104 99 95 92 89 86 83 81 79 80 82 81 83 85 83 82 81 81 82 83 82 80 76 70
170 171 175 174 177 178 177 178 180 181 180 180 178 175 172 167 162 159 155 149 145 144 145 142 141 139 139 140 138 137 135 134 132 132 134 138 142 141 142 142 141 138 135 133 130 132 133 134 140 142 145 146 144 146 145 141 135 127 120 114 110 107 102 98 94 89 86 83 82 81 78 79 80 81 82 83 82 80 80 82 83 83 82 79 74
172 172 175 176 177 179 180 181 181 182 182 182 179 175 172 167 162 159 156 151 147 146 148 146 142 141 142 143 141 141 140 139 137 137 135 134 134 131 131 132 133 128 119 117 115 121 130 133 139 139 145 148 147 149 147 145 142 133 126 120 113 108 104 100 96 93 89 86 84 82 80 76 76 78 79 82 83 82 80 79 80 82 82 80 76
173 173 175 176 178 180 181 181 182 183 183 182 179 175 171 167 163 159 156 153 149 147 149 149 146 143 144 145 146 145 142 139 139 139 135 132 128 120 116 116 121 120 115 113 112 123 133 132 135 136 143 147 147 150 150 150 147 140 133 127 119 113 107 104 101 98 92 88 86 83 82 77 75 76 76 79 83 85 83 81 80 81 81 80 78
173 173 174 177 180 180 181 180 182 183 183 181 177 174 170 167 164 160 158 154 152 150 150 152 150 148 148 147 147 145 141 138 136 137 135 131 126 116 108 106 110 117 126 134 139 149 136 121 130 135 139 143 144 147 150 152 152 147 139 134 127 120 113 110 107 102 95 88 87 85 83 80 76 74 74 78 82 84 85 85 83 81 80 79 78
173 173 175 178 179 178 178 178 179 181 180 178 175 173 171 168 166 163 160 157 157 155 153 153 154 154 151 149 148 147 142 138 136 137 135 132 129 122 113 104 98 101 115 132 142 146 130 119 130 138 137 137 142 146 151 153 156 155 145 140 134 128 122 117 113 106 98 89 87 86 83 79 75 72 72 75 78 83 85 86 85 84 82 79 78
174 174 175 178 178 176 174 173 175 178 177 175 174 173 171 169 169 167 163 161 161 160 159 157 159 159 156 154 153 151 144 140 139 138 135 132 130 126 122 100 87 92 98 110 117 121 128 136 138 141 139 136 142 149 156 157 159 160 152 144 139 137 129 122 118 111 102 92 88 84 82 80 76 71 69 69 74 80 81 85 85 84 83 81 80
174 173 175 179 178 176 173 170 172 174 175 173 174 173 173 174 174 172 168 167 166 164 164 164 164 163 163 160 157 154 148 146 141 138 134 129 127 125 123 98 81 96 97 100 105 106 118 137 142 145 144 142 148 157 162 163 165 166 165 151 143 145 136 127 122 115 107 97 91 86 82 81 79 75 71 69 72 76 76 80 85 84 84 82 80
172 173 175 178 177 174 171 169 170 171 173 173 174 175 176 179 179 178 176 174 171 169 167 168 168 165 166 164 159 157 152 149 145 140 133 126 127 125 118 99 85 97 99 98 102 105 109 126 144 152 152 154 161 165 165 168 171 170 178 159 142 147 141 131 125 118 113 103 96 88 83 82 82 82 78 73 72 77 78 79 83 86 85 83 80
172 173 174 174 172 169 168 168 168 169 171 173 175 176 179 184 185 184 183 180 177 174 171 170 168 165 166 164 161 160 155 150 149 145 135 128 129 125 116 107 101 102 102 100 99 106 115 124 140 158 162 166 168 167 167 170 175 172 184 163 136 143 142 133 126 119 117 109 100 92 87 83 80 80 77 73 69 73 82 83 83 86 86 84 81
172 173 174 171 167 166 167 167 166 166 168 173 176 177 182 188 190 190 188 184 181 176 172 169 166 164 164 164 161 160 156 150 149 148 142 136 132 127 120 114 112 113 108 102 99 103 118 133 142 159 169 173 170 168 171 173 176 177 188 163 133 141 141 133 125 116 115 110 101 94 91 85 80 76 71 68 63 62 73 81 81 85 87 86 84
173 174 174 170 164 163 166 166 165 165 170 176 179 180 185 191 193 191 188 185 183 176 170 169 164 162 163 164 164 161 158 153 153 153 147 140 135 130 124 118 114 117 116 105 100 100 114 140 149 159 172 178 175 174 176 178 180 184 196 169 135 138 136 133 125 113 110 107 99 95 95 89 83 77 70 64 60 57 57 71 82 85 90 91 89
175 173 171 169 164 161 163 166 168 171 177 179 180 183 187 189 191 189 185 182 178 173 168 167 161 159 161 162 163 162 161 158 155 150 142 136 133 131 125 120 116 116 119 110 103 100 107 132 152 160 173 182 181 180 181 182 184 189 203 185 142 135 132 131 124 113 108 104 99 97 99 96 89 81 69 60 59 59 49 55 68 78 89 94 92
174 172 169 166 162 160 164 170 172 171 174 177 177 182 184 183 185 185 180 175 172 169 165 162 158 156 157 160 161 159 158 153 145 139 133 132 131 132 129 123 121 117 118 114 109 105 104 119 145 162 175 186 186 186 187 187 189 193 207 202 160 143 135 132 125 116 109 106 105 102 102 100 93 81 67 53 52 58 52 45 47 59 81 91 93
173 172 167 165 162 161 164 168 167 162 164 168 169 174 176 174 176 179 173 170 168 164 161 157 157 156 155 157 154 150 150 145 139 138 134 136 135 136 134 126 124 120 120 116 112 108 105 112 133 160 176 188 192 192 193 192 194 198 207 213 184 156 144 138 132 123 114 110 109 107 105 103 96 78 63 50 44 46 47 45 39 41 63 81 90
174 171 166 165 163 160 161 161 158 156 159 160 160 164 166 166 170 173 168 166 163 158 157 155 157 156 153 152 149 148 150 148 147 147 143 144 144 142 139 132 129 129 128 117 113 109 103 107 124 154 176 190 198 198 198 196 197 202 208 216 205 173 156 147 140 132 120 111 108 109 105 104 100 77 54 43 35 28 34 53 37 27 43 67 84
173 170 167 166 161 158 159 155 153 155 157 155 156 159 158 161 165 165 161 160 156 154 156 154 155 155 153 152 151 154 154 155 153 152 152 152 151 148 146 142 142 142 135 114 107 106 102 109 124 147 174 191 201 203 203 199 198 203 209 215 214 188 167 158 149 140 126 114 108 106 103 103 99 77 50 31 33 19 14 50 42 9 29 48 77
172 171 169 165 161 160 159 153 152 155 156 157 160 158 155 157 157 158 156 156 155 154 157 155 157 157 156 156 156 155 153 157 155 156 159 160 160 158 160 156 156 152 141 120 96 103 115 130 142 153 173 188 200 206 207 204 201 203 210 216 214 194 174 165 156 147 132 118 110 103 100 101 98 83 50 12 39 2 342 32 166 221 284 359 70
170 171 169 164 163 162 160 155 153 154 156 161 162 155 153 157 155 156 156 156 157 157 162 161 161 159 157 159 162 159 158 164 162 166 170 172 179 182 186 175 166 162 157 162 139 139 139 149 158 167 179 187 195 204 210 208 203 203 209 216 212 190 174 169 162 155 141 125 116 105 96 94 97 91 38 321 241 273 289 238 224 218 222 272 356
169 168 167 165 164 162 160 156 152 154 159 163 161 154 155 160 157 159 161 163 164 164 165 161 159 158 160 166 170 169 167 170 172 183 189 193 204 211 204 186 171 171 173 183 183 166 162 162 163 172 181 188 192 196 206 208 205 205 209 213 211 193 178 172 168 161 148 134 124 112 91 75 72 62 311 276 255 235 231 234 238 226 219 232 241
167 166 166 165 162 161 159 155 153 157 162 161 159 156 158 164 163 164 166 168 166 162 159 154 155 156 161 168 173 176 175 177 187 200 208 212 219 218 205 189 177 181 180 179 189 181 179 176 166 174 182 188 192 191 197 203 203 204 207 211 210 198 184 175 171 167 158 144 133 126 89 50 24 5 303 261 261 245 236 235 235 233 218 213 224
171 167 157 153 157 164 160 154 155 159 161 159 159 161 163 168 168 165 164 163 159 156 156 154 158 161 165 174 183 185 184 185 196 209 224 228 223 216 204 194 186 189 189 179 198 200 199 202 179 180 186 190 191 189 190 195 199 201 206 210 209 202 192 183 175 171 171 160 147 144 94 13 355 346 315 265 256 251 244 242 243 238 220 210 217
172 160 140 151 165 174 169 158 159 161 162 162 164 167 169 171 169 163 161 161 162 163 165 164 165 171 176 186 197 200 199 204 216 226 245 243 225 214 206 201 194 195 199 189 207 214 218 223 204 191 189 188 188 188 187 191 196 198 204 209 208 204 198 194 186 174 181 179 169 165 131 344 343 334 318 280 253 245 238 243 249 239 225 220 220
156 149 153 174 180 180 176 169 167 168 168 170 172 175 177 177 175 170 167 170 175 177 176 178 178 183 190 198 208 214 215 222 234 241 256 255 240 224 213 210 204 202 204 197 205 214 223 224 217 203 193 190 187 186 185 189 196 197 203 208 208 208 205 199 194 181 183 183 176 161 70 339 337 333 322 301 275 255 237 234 240 237 232 235 233
153 156 172 184 187 186 184 181 177 175 175 178 182 186 186 184 186 186 187 188 192 195 196 200 200 203 208 211 216 222 224 232 240 245 259 263 256 240 226 223 216 214 214 206 211 214 222 226 229 210 195 192 188 184 185 188 196 197 202 207 207 213 214 207 201 191 184 181 170 147 73 345 339 337 328 314 297 277 254 238 238 234 228 239 246
163 173 180 183 188 190 189 189 185 181 182 185 191 194 193 194 200 203 206 210 214 218 224 229 230 232 230 228 231 231 231 239 243 246 256 261 260 252 240 234 227 231 233 228 222 210 209 223 237 214 196 193 188 185 188 193 198 197 200 206 206 211 218 220 218 214 208 196 168 143 75 341 336 338 330 319 313 289 263 247 247 240 226 232 244
173 178 181 183 186 189 191 193 190 187 189 192 197 198 201 205 210 218 224 228 231 234 239 243 246 247 244 244 243 240 237 240 242 244 251 259 262 256 250 245 237 236 236 236 226 207 200 211 228 210 196 195 194 191 194 201 203 199 197 199 196 203 218 226 223 221 228 228 212 183 286 319 320 336 339 335 329 306 271 252 255 252 233 231 240
176 176 178 181 186 193 198 196 191 192 195 199 201 202 208 213 218 225 230 235 238 240 244 247 251 250 249 251 247 241 238 239 243 242 245 256 262 252 248 251 246 241 235 232 225 211 202 205 215 208 198 198 202 202 204 208 208 204 198 193 190 195 208 217 216 214 225 233 228 211 233 275 280 326 347 357 350 337 313 281 266 261 245 236 241
174 176 177 180 188 199 202 196 192 196 200 202 204 204 210 217 221 226 229 234 239 241 243 247 253 251 247 246 243 239 236 237 239 239 244 258 263 253 253 258 251 244 237 234 231 224 217 218 224 215 204 202 206 210 215 220 218 214 209 202 199 198 202 207 211 211 216 219 205 190 212 238 240 283 342 4 16 15 351 322 291 279 269 258 252
174 180 182 185 193 200 199 195 193 196 200 202 203 203 209 216 219 224 228 233 240 241 241 244 250 252 250 246 243 242 238 235 233 237 253 265 256 250 261 263 255 246 241 242 240 237 234 231 232 223 213 209 213 217 222 227 230 228 223 217 211 207 206 207 209 204 205 207 189 178 193 206 211 231 298 348 33 49 22 351 314 288 289 289 275
173 180 187 192 196 195 188 190 192 192 196 198 199 198 201 206 212 220 225 232 237 238 237 238 243 251 260 258 252 246 239 236 236 239 250 257 243 243 259 258 253 249 244 245 243 243 241 235 233 227 221 221 224 227 231 234 235 236 231 228 223 217 215 216 217 207 201 205 198 188 191 198 196 193 228 308 15 63 64 42 36 291 288 296 290
174 182 193 196 193 182 176 185 187 185 188 188 190 191 193 200 206 212 218 224 231 238 236 233 238 246 256 255 254 250 241 237 235 232 234 235 230 237 254 254 257 259 254 252 245 245 243 236 232 227 225 224 226 231 237 241 240 240 236 235 237 234 229 227 232 234 224 217 214 204 199 205 198 183 177 283 312 37 73 80 96 107 182 285 303
177 187 194 191 181 172 177 184 178 178 181 178 181 183 187 196 200 205 210 216 224 233 230 226 233 238 246 248 254 254 245 234 227 226 226 223 220 227 241 248 258 261 258 255 246 245 244 234 230 231 230 225 224 229 235 241 242 244 243 243 246 245 241 234 234 240 242 239 229 220 216 214 209 201 199 206 296 334 41 87 109 125 134 119 18
180 187 187 181 177 177 183 181 175 176 176 172 174 179 184 189 195 200 201 208 216 220 219 220 228 232 239 243 247 248 242 230 223 226 225 218 217 223 226 231 244 254 256 255 248 243 242 237 235 239 240 233 231 233 235 240 243 245 248 250 251 251 249 241 235 237 243 248 241 234 229 219 219 224 225 232 241 267 325 306 267 197 157 134 88
184 184 185 188 183 179 180 178 178 177 172 168 172 178 182 187 193 195 194 200 207 212 212 212 222 232 238 242 243 246 245 230 214 218 220 216 216 219 223 227 233 243 250 255 254 251 250 247 243 244 246 240 238 237 235 238 244 246 245 249 254 256 256 250 243 239 243 250 245 240 239 230 229 234 235 239 239 245 267 271 273 273 255 191 127
188 183 189 194 185 177 178 179 182 177 170 170 177 182 185 191 193 193 194 198 203 210 210 206 219 242 253 262 261 256 253 239 219 218 220 218 217 220 225 229 234 239 245 252 257 260 260 256 250 248 247 243 242 240 236 235 241 242 240 245 251 257 262 259 251 245 244 248 244 240 243 243 242 240 238 236 235 239 245 247 254 269 280 275 244
188 185 196 198 186 180 179 181 184 177 172 177 182 186 187 193 197 198 196 187 192 203 205 206 220 255 271 286 292 299 271 246 226 222 222 220 220 225 230 234 239 242 247 254 259 261 261 260 258 253 249 245 243 240 235 232 235 238 239 242 245 252 261 265 262 253 246 246 245 243 244 247 250 248 243 241 240 237 235 238 242 252 266 276 283
190 190 204 200 184 182 184 185 185 178 180 186 187 190 192 196 205 214 210 190 187 191 201 213 208 267 305 308 292 300 313 257 205 207 211 215 219 225 230 233 236 240 247 252 255 256 255 254 256 255 251 244 243 244 238 232 234 237 241 243 243 247 252 260 265 261 251 249 250 250 248 247 248 249 246 245 244 238 231 229 230 234 242 252 270
195 195 209 205 185 188 193 189 187 186 190 192 192 197 205 215 235 255 260 265 248 200 214 208 210 268 327 320 286 256 257 244 184 182 183 193 206 216 222 228 233 239 247 252 254 255 254 252 251 253 253 249 248 251 245 239 238 235 238 242 244 245 248 253 258 255 249 247 249 250 251 247 243 245 248 244 243 241 236 229 226 226 229 234 244
199 197 209 210 193 194 199 193 191 196 196 198 203 203 216 252 289 299 294 291 268 210 195 196 222 316 350 343 316 257 219 203 200 190 185 194 210 225 234 238 240 244 251 259 263 264 262 259 255 255 257 256 253 251 245 241 239 233 234 240 245 249 251 250 247 244 241 240 244 248 251 248 240 242 250 247 244 245 244 239 233 226 222 227 235
203 203 211 214 203 201 203 196 196 202 198 198 205 203 217 252 280 295 296 288 263 228 204 205 263 344 353 348 330 307 235 202 210 209 204 214 240 257 259 252 246 245 253 261 268 275 274 268 264 260 261 258 248 242 238 236 239 236 233 239 247 252 253 248 241 239 239 242 246 246 248 248 244 247 254 253 251 252 252 250 245 239 235 234 241
207 208 212 215 210 206 205 199 198 203 201 200 201 201 210 240 260 268 267 249 245 237 218 219 308 356 354 355 337 339 38 126 165 177 198 282 348 360 355 351 18 51 34 334 334 337 317 296 285 276 272 264 250 239 233 233 241 237 230 233 240 245 251 250 242 237 238 243 248 246 243 244 244 246 247 248 252 254 257 259 256 251 251 250 256
211 213 216 216 212 210 207 201 200 202 203 202 199 201 208 228 239 237 234 223 220 226 222 225 327 360 358 4 343 19 74 86 100 115 74 22 28 22 3 347 348 15 63 50 55 61 52 28 348 324 303 281 264 250 235 229 236 236 232 229 223 228 240 240 232 232 236 241 247 246 242 240 239 240 244 250 256 256 257 262 259 252 252 255 263
216 217 219 217 213 213 207 199 199 202 205 203 198 203 211 225 233 228 228 230 222 221 217 233 284 308 306 273 272 121 107 96 91 101 77 355 346 340 346 343 342 334 188 159 67 63 56 42 14 4 8 347 284 255 238 224 225 229 234 234 226 220 224 219 212 222 231 238 243 240 237 236 233 232 236 247 255 254 253 257 254 252 248 244 254
217 218 221 220 217 213 205 197 196 200 203 201 198 203 213 219 222 214 205 304 242 226 217 225 251 258 247 241 245 192 136 117 117 84 309 295 309 333 345 353 5 13 175 189 210 324 319 320 326 342 18 32 28 340 245 226 221 222 227 231 232 229 228 226 220 218 216 219 228 227 227 225 219 220 218 221 234 239 243 247 251 260 257 239 247
216 218 218 214 209 204 198 192 190 199 204 202 202 207 215 217 209 192 165 138 236 247 236 213 206 221 231 230 228 151 29 354 328 323 321 318 344 356 8 21 34 37 35 218 250 268 288 298 306 321 20 38 43 48 46 266 225 229 231 231 235 245 253 243 220 208 205 206 212 208 213 213 208 214 214 214 225 230 238 245 250 261 266 256 253
215 213 207 205 205 198 191 190 192 206 206 203 207 211 214 213 202 185 181 196 217 236 236 208 196 203 214 214 196 14 354 351 342 339 356 30 18 22 42 54 63 71 75 81 86 107 212 257 133 147 121 74 62 62 56 49 53 53 243 240 254 274 282 280 242 218 205 192 193 180 188 202 197 206 218 224 228 228 239 246 245 255 265 264 261
214 211 205 212 216 204 196 201 206 215 211 205 206 209 208 203 196 191 195 209 221 229 224 209 203 193 188 201 181 31 20 15 12 33 67 66 48 49 64 70 75 77 78 79 80 82 87 96 106 116 130 135 128 93 55 36 50 61 65 66 42 19 11 9 341 266 204 168 163 155 158 167 166 173 198 215 213 212 233 251 252 262 274 273 271
214 216 212 217 214 202 208 215 217 221 214 205 203 203 203 198 194 199 205 219 235 234 219 210 208 176 156 168 134 86 69 55 52 75 85 81 70 63 67 72 73 72 72 73 74 76 79 86 93 95 103 117 126 121 94 72 89 78 73 74 63 50 52 55 46 25 48 113 146 154 153 145 140 134 124 139 159 179 223 275 285 287 294 291 295
Height
1498 1501 1504 1506 1508 1509 1511 1512 1514 1515 1516 1517 1518 1520 1521 1522 1522 1523 1523 1524 1524 1525 1525 1526 1526 1527 1527 1528 1529 1529 1530 1530 1531 1531 1532 1532 1533 1534 1535 1536 1537 1538 1539 1540 1541 1541 1542 1542 1542 1543 1543 1543 1544 1544 1545 1546 1547 1547 1548 1548 1548 1548 1548 1548 1548 1548 1548 1548 1548 1547 1547 1547 1546 1546 1546 1546 1545 1545 1545 1545 1545 1544 1544 1543 1543
1496 1500 1503 1506 1507 1509 1510 1512 1513 1514 1516 1517 1518 1519 1521 1522 1523 1523 1524 1525 1525 1526 1526 1527 1527 1528 1528 1529 1530 1530 1531 1531 1532 1532 1533 1533 1534 1535 1536 1537 1538 1539 1540 1540 1541 1542 1542 1542 1543 1543 1544 1544 1544 1545 1546 1547 1547 1548 1549 1549 1549 1549 1549 1550 1550 1550 1549 1549 1549 1549 1549 1548 1548 1548 1547 1547 1547 1546 1546 1546 1546 1545 1545 1545 1544
1497 1500 1503 1505 1507 1509 1510 1511 1513 1514 1516 1517 1518 1519 1520 1522 1523 1524 1525 1525 1526 1527 1527 1528 1528 1528 1529 1530 1531 1531 1532 1532 1533 1533 1534 1534 1535 1536 1536 1537 1538 1539 1540 1541 1541 1542 1542 1543 1543 1544 1544 1544 1545 1545 1546 1547 1548 1549 1550 1550 1550 1550 1551 1551 1551 1551 1551 1550 1550 1550 1550 1550 1550 1549 1549 1548 1548 1548 1548 1547 1547 1547 1546 1546 1546
1498 1500 1502 1504 1506 1508 1509 1511 1513 1514 1516 1517 1518 1519 1520 1522 1523 1524 1525 1526 1527 1527 1528 1529 1529 1529 1530 1531 1531 1532 1533 1533 1534 1535 1535 1536 1536 1537 1537 1538 1539 1540 1540 1541 1542 1542 1543 1543 1543 1544 1544 1545 1545 1546 1547 1548 1549 1550 1551 1551 1551 1551 1552 1552 1552 1552 1552 1552 1552 1551 1551 1551 1551 1551 1550 1550 1549 1549 1549 1549 1548 1548 1547 1547 1547
1499 1501 1503 1504 1506 1508 1509 1511 1513 1515 1516 1518 1519 1520 1521 1522 1523 1524 1525 1526 1527 1528 1529 1529 1530 1530 1531 1532 1532 1533 1534 1534 1535 1536 1537 1537 1537 1538 1538 1539 1540 1540 1541 1542 1543 1543 1543 1543 1544 1544 1545 1545 1546 1546 1547 1548 1549 1550 1551 1552 1552 1553 1553 1553 1553 1554 1553 1553 1553 1553 1552 1552 1552 1552 1551 1551 1551 1551 1550 1550 1550 1549 1549 1548 1548
1499 1502 1504 1505 1507 1508 1510 1511 1514 1516 1517 1518 1519 1520 1521 1522 1524 1525 1526 1527 1528 1529 1530 1530 1531 1531 1532 1533 1533 1534 1535 1535 1536 1538 1538 1539 1539 1539 1539 1540 1541 1541 1542 1543 1544 1544 1544 1544 1544 1545 1545 1545 1546 1547 1548 1548 1550 1551 1552 1553 1553 1554 1554 1554 1554 1555 1554 1554 1554 1553 1553 1553 1553 1553 1553 1552 1552 1552 1552 1551 1551 1551 1550 1550 1549
1500 1502 1504 1506 1507 1508 1510 1512 1514 1516 1517 1519 1520 1521 1522 1523 1524 1525 1526 1527 1529 1530 1531 1531 1532 1532 1533 1534 1534 1535 1536 1536 1537 1538 1539 1539 1540 1540 1541 1542 1542 1542 1543 1544 1544 1545 1545 1545 1545 1545 1546 1546 1547 1547 1548 1549 1550 1551 1553 1554 1554 1555 1555 1555 1555 1555 1555 1555 1555 1555 1555 1555 1555 1554 1554 1554 1554 1554 1553 1553 1552 1552 1552 1551 1551
1500 1502 1504 1506 1507 1509 1511 1512 1514 1515 1518 1520 1522 1523 1523 1524 1525 1526 1527 1528 1529 1531 1532 1532 1533 1533 1534 1535 1535 1536 1537 1538 1538 1539 1539 1540 1541 1542 1543 1544 1544 1543 1544 1544 1545 1545 1546 1547 1546 1546 1546 1547 1547 1548 1549 1550 1551 1552 1553 1554 1555 1556 1556 1556 1556 1556 1556 1556 1556 1556 1556 1556 1556 1556 1555 1555 1555 1555 1555 1554 1554 1553 1553 1552 1552
1501 1503 1504 1506 1508 1509 1510 1512 1514 1516 1518 1520 1522 1524 1525 1526 1526 1527 1527 1529 1530 1531 1532 1533 1533 1534 1534 1535 1536 1537 1538 1539 1539 1540 1540 1540 1541 1543 1544 1545 1545 1544 1544 1545 1545 1546 1546 1547 1547 1547 1547 1548 1548 1549 1549 1550 1551 1552 1554 1555 1556 1556 1557 1557 1557 1557 1557 1557 1557 1557 1557 1557 1557 1557 1557 1556 1556 1556 1556 1556 1555 1555 1554 1554 1553
1502 1503 1505 1507 1508 1509 1510 1511 1513 1516 1518 1520 1522 1524 1526 1527 1527 1528 1528 1529 1530 1532 1533 1533 1534 1534 1535 1536 1536 1537 1538 1539 1540 1541 1541 1542 1543 1544 1545 1546 1546 1546 1545 1546 1546 1546 1547 1547 1548 1548 1548 1548 1549 1549 1550 1550 1551 1552 1553 1555 1557 1557 1557 1558 1558 1558 1558 1558 1558 1558 1557 1558 1558 1558 1558 1558 1558 1558 1558 1557 1557 1556 1556 1555 1554
1502 1504 1506 1507 1509 1510 1511 1512 1514 1516 1518 1520 1522 1524 1526 1527 1528 1529 1529 1530 1531 1532 1533 1534 1534 1535 1535 1536 1537 1538 1539 1540 1541 1542 1542 1543 1544 1545 1546 1547 1547 1547 1547 1547 1547 1548 1548 1548 1548 1548 1548 1549 1549 1549 1550 1551 1552 1553 1553 1555 1557 1557 1558 1558 1559 1559 1559 1559 1559 1559 1558 1558 1559 1559 1559 1559 1559 1559 1559 1559 1558 1558 1557 1557 1556
1503 1504 1506 1508 1509 1511 1513 1513 1514 1516 1518 1520 1521 1524 1526 1528 1529 1529 1530 1531 1532 1533 1533 1534 1535 1536 1536 1537 1538 1539 1540 1541 1542 1543 1543 1544 1545 1546 1547 1547 1547 1547 1548 1548 1548 1549 1549 1548 1548 1549 1549 1549 1549 1550 1551 1552 1552 1553 1554 1555 1558 1558 1559 1559 1560 1560 1560 1560 1560 1560 1559 1559 1559 1560 1560 1560 1560 1560 1559 1560 1560 1559 1559 1558 1557
1503 1504 1506 1508 1510 1512 1513 1514 1515 1517 1519 1520 1522 1523 1525 1528 1529 1529 1530 1531 1532 1533 1534 1535 1536 1536 1537 1538 1539 1540 1541 1542 1543 1543 1544 1545 1546 1547 1547 1548 1548 1548 1549 1549 1549 1550 1550 1549 1549 1549 1550 1550 1551 1551 1552 1552 1553 1554 1554 1556 1558 1559 1559 1560 1560 1561 1561 1561 1560 1561 1560 1560 1560 1560 1561 1561 1561 1561 1561 1560 1560 1560 1560 1559 1559
1503 1504 1506 1508 1511 1513 1514 1515 1516 1517 1519 1521 1522 1523 1525 1528 1529 1529 1530 1532 1533 1534 1535 1536 1536 1537 1538 1539 1540 1541 1542 1542 1543 1543 1544 1545 1546 1547 1548 1548 1548 1549 1549 1550 1550 1551 1551 1550 1550 1550 1551 1551 1552 1552 1552 1553 1554 1555 1555 1557 1558 1559 1560 1560 1561 1562 1562 1561 1561 1561 1561 1561 1561 1561 1562 1562 1562 1562 1562 1561 1561 1561 1561 1561 1560
1505 1506 1508 1509 1511 1513 1516 1517 1517 1518 1520 1522 1522 1524 1526 1528 1529 1530 1531 1533 1534 1535 1536 1537 1537 1538 1539 1539 1540 1541 1542 1543 1543 1544 1545 1546 1546 1547 1548 1549 1549 1550 1550 1551 1551 1551 1551 1551 1551 1551 1552 1552 1552 1553 1553 1554 1554 1555 1556 1557 1559 1559 1560 1561 1562 1562 1562 1562 1562 1562 1562 1562 1562 1562 1562 1562 1563 1563 1563 1563 1562 1562 1562 1562 1561
1507 1508 1509 1510 1512 1514 1516 1518 1518 1519 1520 1522 1523 1524 1526 1528 1529 1531 1532 1534 1535 1536 1536 1537 1538 1538 1539 1540 1540 1542 1542 1543 1544 1545 1546 1546 1547 1548 1548 1549 1550 1550 1551 1551 1552 1552 1552 1552 1552 1552 1552 1552 1553 1553 1554 1554 1555 1555 1556 1557 1559 1560 1561 1562 1562 1563 1563 1563 1563 1563 1563 1563 1562 1563 1563 1563 1563 1564 1564 1564 1564 1563 1563 1562 1562
1508 1510 1511 1512 1513 1514 1516 1518 1519 1520 1522 1523 1524 1525 1527 1528 1530 1532 1534 1535 1535 1536 1537 1537 1538 1538 1539 1540 1541 1542 1543 1544 1545 1546 1546 1547 1547 1548 1549 1550 1550 1551 1551 1552 1552 1553 1553 1553 1553 1553 1553 1553 1553 1554 1554 1555 1555 1556 1556 1557 1559 1560 1561 1562 1562 1563 1563 1563 1563 1563 1563 1563 1563 1563 1563 1564 1564 1564 1564 1565 1564 1564 1564 1564 1563
1510 1511 1512 1513 1514 1515 1516 1518 1519 1521 1523 1524 1524 1525 1527 1529 1531 1533 1534 1535 1536 1537 1537 1538 1539 1539 1540 1541 1542 1543 1544 1545 1545 1546 1547 1547 1548 1549 1549 1550 1550 1551 1552 1553 1553 1554 1554 1554 1554 1554 1554 1554 1554 1554 1555 1555 1556 1556 1557 1557 1558 1560 1561 1561 1562 1563 1564 1564 1564 1564 1564 1564 1563 1563 1564 1564 1565 1565 1565 1565 1565 1565 1565 1565 1564
1511 1512 1513 1514 1515 1516 1517 1518 1520 1522 1523 1524 1525 1526 1528 1530 1532 1534 1535 1536 1537 1537 1538 1538 1539 1540 1541 1542 1543 1543 1544 1545 1546 1547 1547 1548 1548 1549 1550 1550 1551 1551 1552 1553 1554 1554 1555 1555 1555 1554 1554 1554 1554 1555 1555 1556 1556 1557 1557 1557 1558 1560 1560 1561 1562 1563 1564 1564 1564 1564 1564 1564 1564 1564 1564 1564 1565 1565 1565 1565 1565 1565 1565 1565 1565
1511 1513 1514 1514 1515 1516 1517 1518 1519 1521 1522 1523 1525 1526 1528 1530 1533 1534 1536 1536 1537 1537 1538 1538 1539 1540 1541 1542 1543 1544 1544 1545 1546 1547 1548 1548 1549 1550 1550 1551 1551 1551 1552 1553 1554 1554 1554 1555 1555 1555 1555 1555 1555 1555 1555 1556 1557 1557 1557 1558 1559 1560 1560 1561 1562 1563 1563 1564 1564 1564 1565 1564 1564 1564 1564 1564 1565 1565 1565 1565 1565 1566 1565 1565 1565
1511 1513 1515 1515 1515 1516 1517 1518 1519 1520 1521 1523 1525 1526 1528 1531 1533 1534 1536 1536 1536 1537 1538 1539 1539 1540 1541 1542 1543 1544 1545 1546 1546 1547 1548 1549 1550 1550 1550 1551 1551 1552 1552 1553 1553 1554 1554 1554 1554 1554 1554 1555 1555 1555 1555 1556 1557 1557 1558 1558 1559 1560 1561 1561 1562 1563 1563 1564 1564 1565 1565 1565 1565 1564 1564 1564 1565 1565 1565 1565 1565 1566 1566 1566 1566
1512 1514 1516 1517 1517 1517 1518 1519 1520 1521 1522 1523 1525 1527 1529 1531 1533 1534 1535 1536 1536 1537 1538 1539 1540 1540 1541 1542 1543 1544 1545 1546 1547 1547 1548 1549 1550 1550 1551 1551 1551 1552 1552 1553 1553 1553 1553 1554 1554 1554 1554 1554 1554 1554 1555 1556 1557 1557 1558 1558 1559 1560 1561 1561 1562 1563 1563 1564 1564 1565 1565 1565 1565 1564 1564 1564 1565 1565 1565 1565 1565 1566 1566 1566 1566
1514 1515 1516 1518 1519 1520 1520 1521 1522 1522 1523 1524 1526 1527 1529 1530 1532 1534 1535 1535 1536 1537 1538 1539 1540 1540 1541 1542 1543 1544 1545 1546 1547 1547 1548 1549 1550 1550 1551 1551 1551 1552 1552 1552 1553 1553 1553 1553 1554 1554 1554 1554 1554 1554 1555 1555 1556 1557 1557 1558 1559 1560 1561 1561 1562 1563 1563 1564 1564 1565 1565 1565 1565 1565 1564 1564 1564 1565 1565 1565 1565 1565 1565 1566 1566
1514 1515 1516 1519 1522 1523 1522 1523 1524 1524 1524 1525 1527 1528 1529 1530 1532 1533 1534 1535 1536 1538 1538 1539 1540 1540 1541 1542 1543 1544 1545 1546 1546 1547 1548 1549 1549 1550 1551 1551 1551 1551 1552 1552 1552 1553 1553 1554 1554 1554 1554 1554 1554 1555 1555 1555 1556 1556 1557 1558 1559 1560 1561 1562 1562 1563 1563 1564 1564 1565 1565 1565 1565 1565 1565 1564 1564 1564 1565 1565 1565 1565 1565 1565 1565
1513 1515 1519 1521 1523 1523 1524 1524 1525 1525 1526 1527 1528 1529 1530 1531 1532 1533 1535 1536 1537 1538 1538 1539 1539 1540 1541 1542 1543 1544 1545 1546 1546 1547 1548 1548 1549 1550 1550 1551 1551 1551 1551 1552 1552 1553 1553 1554 1554 1554 1554 1554 1554 1555 1555 1555 1556 1556 1557 1557 1558 1560 1561 1562 1562 1563 1563 1564 1564 1565 1565 1565 1565 1565 1565 1564 1564 1564 1564 1565 1565 1565 1565 1565 1565
1515 1517 1520 1521 1522 1522 1524 1525 1526 1527 1527 1528 1529 1530 1531 1531 1532 1534 1535 1536 1537 1538 1538 1539 1539 1540 1541 1542 1543 1544 1545 1546 1546 1547 1547 1548 1549 1549 1550 1550 1550 1551 1551 1551 1552 1553 1553 1554 1554 1554 1554 1554 1554 1555 1556 1556 1556 1556 1557 1557 1558 1560 1561 1562 1562 1563 1563 1564 1564 1565 1565 1565 1565 1565 1565 1564 1564 1564 1564 1564 1565 1565 1565 1566 1566
1514 1515 1516 1518 1520 1522 1523 1525 1526 1527 1528 1529 1530 1531 1531 1532 1533 1534 1535 1536 1537 1537 1538 1539 1539 1540 1541 1542 1542 1543 1544 1545 1546 1547 1547 1548 1548 1549 1549 1550 1550 1551 1551 1552 1552 1553 1554 1554 1554 1554 1554 1554 1555 1555 1556 1556 1556 1556 1557 1557 1558 1560 1561 1562 1563 1563 1563 1564 1564 1565 1565 1565 1565 1565 1565 1564 1564 1564 1564 1564 1564 1565 1565 1566 1566
1509 1510 1513 1516 1519 1522 1523 1525 1526 1528 1528 1529 1530 1531 1531 1532 1533 1534 1535 1536 1537 1537 1538 1539 1539 1540 1540 1541 1542 1543 1544 1545 1546 1546 1547 1547 1548 1548 1549 1550 1551 1551 1552 1552 1553 1553 1553 1554 1554 1554 1554 1555 1555 1556 1556 1556 1556 1557 1557 1557 1559 1560 1561 1562 1563 1563 1563 1564 1564 1565 1565 1565 1565 1565 1565 1564 1564 1564 1564 1564 1564 1564 1565 1565 1566
1505 1508 1511 1514 1518 1521 1523 1524 1526 1528 1529 1530 1530 1531 1531 1532 1533 1534 1535 1536 1536 1537 1538 1539 1539 1540 1540 1541 1541 1542 1543 1544 1545 1545 1546 1547 1547 1548 1549 1550 1550 1551 1551 1552 1553 1553 1553 1554 1554 1554 1554 1555 1555 1556 1556 1556 1556 1557 1557 1558 1559 1560 1561 1562 1562 1563 1563 1564 1564 1565 1565 1565 1565 1565 1565 1564 1564 1563 1563 1563 1564 1564 1564 1565 1565
1505 1507 1510 1513 1517 1520 1521 1523 1526 1528 1529 1530 1530 1531 1531 1532 1533 1534 1535 1536 1536 1537 1538 1538 1539 1539 1540 1540 1541 1541 1542 1543 1544 1545 1545 1546 1547 1547 1548 1549 1550 1550 1551 1552 1552 1553 1553 1554 1554 1554 1554 1555 1555 1556 1556 1556 1556 1557 1557 1558 1559 1559 1560 1561 1562 1562 1563 1563 1564 1565 1565 1565 1565 1565 1565 1565 1564 1564 1563 1563 1563 1564 1564 1564 1565
1507 1509 1511 1513 1516 1518 1520 1523 1526 1527 1529 1530 1530 1531 1531 1532 1533 1534 1535 1536 1536 1537 1538 1538 1539 1539 1539 1539 1540 1540 1541 1542 1543 1544 1545 1546 1546 1547 1548 1549 1550 1550 1551 1551 1552 1553 1553 1554 1554 1554 1554 1555 1555 1556 1556 1556 1557 1557 1557 1558 1558 1559 1560 1561 1561 1562 1562 1563 1563 1564 1564 1565 1565 1565 1565 1565 1564 1564 1564 1563 1564 1564 1564 1564 1564
1508 1509 1511 1513 1515 1517 1520 1523 1525 1526 1528 1529 1530 1531 1531 1532 1533 1534 1535 1535 1536 1536 1537 1538 1538 1538 1538 1539 1539 1540 1540 1541 1542 1543 1545 1546 1547 1547 1548 1548 1549 1549 1550 1551 1552 1552 1553 1553 1554 1554 1554 1554 1554 1555 1555 1556 1556 1557 1557 1558 1558 1559 1560 1560 1561 1561 1562 1562 1563 1563 1564 1564 1564 1565 1565 1564 1564 1564 1563 1563 1563 1564 1564 1564 1564
1508 1509 1511 1512 1514 1517 1520 1522 1524 1525 1527 1528 1530 1531 1532 1532 1533 1534 1534 1535 1536 1536 1537 1537 1538 1538 1538 1538 1539 1539 1540 1541 1541 1543 1544 1545 1546 1547 1547 1548 1548 1549 1549 1550 1551 1551 1552 1553 1553 1553 1553 1554 1554 1554 1555 1555 1556 1556 1557 1557 1558 1558 1559 1560 1560 1561 1561 1562 1562 1563 1563 1564 1564 1564 1564 1564 1564 1563 1563 1563 1563 1563 1564 1564 1564
1508 1509 1510 1513 1516 1518 1519 1521 1523 1525 1527 1529 1530 1531 1532 1532 1533 1534 1534 1535 1535 1536 1536 1537 1538 1538 1538 1538 1538 1538 1539 1540 1541 1542 1544 1545 1546 1546 1547 1547 1548 1548 1549 1549 1550 1551 1551 1552 1552 1553 1553 1553 1553 1553 1554 1554 1555 1555 1556 1557 1557 1558 1558 1559 1560 1560 1561 1561 1562 1562 1563 1563 1564 1564 1564 1564 1564 1564 1563 1563 1563 1563 1563 1564 1564
1508 1510 1512 1515 1517 1518 1519 1521 1523 1525 1527 1529 1530 1531 1531 1532 1533 1534 1534 1534 1535 1535 1536 1537 1537 1537 1537 1537 1537 1538 1539 1540 1541 1542 1543 1544 1545 1545 1546 1546 1547 1547 1548 1549 1549 1550 1551 1551 1551 1552 1552 1552 1552 1552 1553 1553 1554 1555 1555 1556 1556 1557 1557 1558 1559 1559 1560 1561 1561 1562 1562 1563 1563 1564 1564 1564 1564 1564 1564 1563 1563 1563 1563 1563 1564
1509 1511 1514 1516 1516 1517 1519 1521 1524 1525 1528 1529 1530 1530 1531 1532 1532 1533 1533 1534 1534 1535 1535 1536 1537 1537 1537 1537 1537 1538 1539 1540 1541 1541 1542 1543 1544 1544 1544 1545 1546 1546 1547 1548 1549 1549 1550 1550 1550 1551 1551 1551 1551 1551 1552 1552 1553 1553 1554 1555 1555 1556 1556 1557 1558 1558 1559 1560 1561 1561 1562 1562 1563 1563 1564 1564 1564 1564 1564 1564 1563 1563 1563 1563 1563
1510 1512 1514 1515 1516 1518 1520 1523 1524 1526 1528 1528 1529 1530 1530 1531 1532 1532 1533 1533 1534 1534 1535 1536 1536 1537 1537 1537 1537 1538 1539 1539 1540 1541 1541 1542 1542 1543 1543 1543 1544 1545 1546 1547 1548 1549 1549 1549 1549 1550 1550 1550 1550 1550 1551 1552 1552 1553 1553 1553 1554 1555 1555 1556 1557 1558 1558 1559 1560 1561 1561 1562 1562 1563 1563 1563 1564 1564 1564 1564 1564 1564 1564 1563 1563
1511 1513 1514 1515 1517 1519 1521 1523 1525 1526 1527 1528 1528 1529 1530 1531 1531 1532 1532 1533 1533 1534 1534 1535 1536 1536 1537 1537 1537 1538 1538 1538 1539 1540 1540 1541 1541 1541 1542 1542 1543 1544 1545 1546 1547 1548 1548 1548 1548 1548 1549 1549 1549 1549 1550 1550 1551 1552 1552 1553 1553 1554 1554 1555 1556 1557 1557 1558 1559 1560 1561 1561 1562 1562 1562 1563 1563 1563 1563 1563 1564 1564 1564 1564 1564
1511 1513 1514 1515 1517 1519 1521 1523 1525 1526 1526 1527 1528 1529 1530 1530 1531 1531 1532 1532 1533 1534 1535 1535 1536 1536 1537 1537 1537 1537 1538 1538 1539 1539 1540 1540 1540 1541 1541 1542 1543 1543 1544 1545 1546 1546 1547 1547 1547 1547 1548 1548 1548 1548 1548 1549 1550 1551 1551 1552 1552 1553 1554 1554 1555 1556 1557 1557 1558 1559 1560 1560 1561 1561 1561 1562 1562 1563 1563 1563 1563 1564 1564 1564 1564
1510 1512 1512 1515 1517 1518 1520 1523 1524 1525 1526 1526 1527 1528 1529 1529 1530 1531 1531 1532 1533 1534 1535 1536 1536 1536 1537 1537 1537 1537 1537 1538 1538 1539 1540 1540 1540 1541 1541 1542 1542 1543 1543 1544 1544 1545 1545 1546 1546 1546 1546 1546 1546 1546 1547 1548 1549 1550 1550 1551 1551 1552 1553 1554 1554 1555 1556 1556 1557 1558 1559 1559 1560 1560 1561 1561 1562 1562 1562 1562 1562 1563 1563 1564 1564
1509 1510 1511 1514 1516 1517 1520 1522 1524 1525 1525 1526 1526 1527 1528 1529 1530 1531 1531 1533 1534 1535 1535 1536 1536 1536 1537 1537 1537 1537 1538 1538 1539 1539 1540 1540 1541 1541 1542 1542 1541 1542 1542 1542 1543 1544 1544 1545 1545 1545 1545 1545 1546 1546 1547 1547 1548 1549 1549 1550 1550 1551 1552 1553 1553 1554 1555 1555 1556 1557 1558 1558 1559 1559 1560 1560 1561 1561 1561 1562 1562 1562 1563 1564 1564
1508 1508 1509 1512 1515 1517 1519 1521 1523 1524 1524 1525 1526 1527 1528 1529 1529 1531 1532 1533 1534 1534 1535 1536 1536 1536 1537 1537 1537 1537 1538 1539 1539 1540 1541 1541 1542 1542 1542 1542 1541 1541 1541 1541 1542 1543 1543 1544 1544 1544 1544 1544 1545 1545 1546 1546 1547 1548 1549 1549 1550 1550 1551 1552 1552 1553 1554 1554 1555 1556 1556 1557 1558 1558 1559 1560 1560 1560 1561 1561 1561 1561 1562 1562 1564
1506 1507 1508 1511 1514 1516 1518 1519 1521 1523 1524 1525 1526 1527 1528 1528 1529 1530 1531 1532 1533 1534 1535 1536 1536 1536 1536 1537 1537 1538 1538 1539 1540 1541 1541 1542 1542 1542 1542 1542 1541 1541 1541 1541 1541 1542 1543 1543 1543 1543 1543 1543 1544 1544 1545 1546 1546 1547 1548 1549 1549 1550 1550 1550 1551 1552 1553 1554 1554 1555 1555 1556 1557 1558 1558 1559 1559 1559 1559 1560 1559 1559 1559 1559 1561
1505 1506 1508 1510 1512 1514 1516 1518 1520 1523 1524 1525 1526 1527 1528 1528 1529 1530 1531 1532 1533 1534 1534 1535 1535 1536 1536 1537 1537 1538 1539 1539 1540 1541 1542 1543 1543 1543 1542 1542 1541 1541 1541 1540 1541 1541 1542 1543 1543 1543 1543 1543 1543 1544 1544 1545 1545 1546 1547 1548 1549 1549 1549 1549 1550 1551 1552 1553 1553 1553 1554 1555 1556 1556 1557 1557 1557 1558 1558 1558 1558 1558 1558 1559 1561
1504 1505 1506 1509 1511 1513 1515 1517 1520 1522 1524 1525 1526 1527 1528 1528 1529 1530 1531 1532 1533 1534 1535 1535 1535 1536 1536 1537 1538 1538 1539 1540 1541 1542 1542 1543 1543 1543 1543 1542 1542 1541 1541 1540 1540 1541 1542 1542 1543 1543 1543 1543 1543 1543 1544 1545 1545 1546 1546 1547 1548 1549 1549 1549 1549 1550 1551 1551 1551 1552 1552 1553 1554 1555 1556 1556 1556 1557 1557 1557 1557 1558 1558 1560 1561
1503 1504 1506 1508 1510 1512 1514 1517 1520 1523 1524 1525 1527 1527 1528 1528 1529 1530 1531 1532 1533 1534 1535 1536 1536 1537 1537 1538 1538 1538 1539 1540 1541 1542 1543 1544 1544 1544 1543 1543 1542 1541 1541 1541 1541 1541 1542 1542 1543 1543 1543 1543 1542 1543 1543 1544 1544 1545 1545 1546 1547 1548 1548 1549 1549 1549 1550 1550 1550 1550 1551 1552 1553 1554 1554 1555 1555 1555 1556 1556 1556 1556 1557 1559 1560
1503 1505 1507 1510 1512 1513 1514 1517 1520 1523 1524 1525 1527 1528 1528 1529 1530 1531 1532 1533 1534 1535 1536 1536 1537 1538 1538 1538 1539 1539 1539 1540 1541 1542 1543 1544 1544 1544 1544 1543 1542 1542 1541 1541 1541 1541 1542 1542 1543 1543 1543 1543 1543 1543 1543 1543 1543 1544 1544 1545 1546 1547 1547 1548 1548 1548 1549 1549 1549 1550 1550 1552 1552 1552 1553 1553 1554 1554 1554 1555 1556 1556 1557 1559 1559
1504 1507 1509 1511 1511 1512 1513 1517 1520 1522 1524 1525 1527 1528 1529 1530 1531 1532 1533 1533 1534 1535 1536 1537 1538 1538 1539 1539 1539 1539 1540 1541 1541 1542 1543 1544 1544 1544 1543 1543 1542 1542 1541 1541 1541 1541 1542 1542 1543 1543 1543 1544 1543 1543 1543 1543 1543 1543 1544 1545 1545 1546 1546 1546 1547 1547 1548 1548 1548 1549 1550 1551 1552 1552 1552 1552 1553 1553 1554 1555 1555 1555 1555 1557 1557
1506 1508 1509 1511 1512 1515 1518 1520 1520 1521 1522 1524 1526 1528 1529 1531 1532 1533 1533 1534 1534 1535 1537 1537 1538 1539 1539 1539 1540 1540 1540 1541 1541 1542 1543 1543 1543 1543 1543 1543 1542 1542 1541 1541 1541 1541 1542 1542 1543 1543 1544 1544 1544 1544 1544 1544 1543 1544 1544 1544 1545 1546 1546 1546 1546 1546 1547 1547 1548 1549 1550 1551 1551 1551 1552 1552 1552 1553 1553 1554 1554 1554 1554 1555 1555
1505 1507 1511 1514 1517 1521 1525 1523 1521 1521 1522 1523 1525 1527 1529 1531 1532 1533 1533 1534 1535 1536 1537 1538 1539 1539 1540 1540 1540 1541 1541 1541 1541 1542 1542 1543 1543 1544 1544 1544 1543 1543 1542 1542 1542 1542 1542 1542 1543 1544 1544 1545 1545 1545 1545 1544 1544 1544 1544 1545 1545 1546 1546 1546 1546 1546 1547 1548 1549 1549 1550 1551 1551 1551 1552 1552 1552 1553 1553 1553 1553 1553 1553 1554 1555
1504 1509 1515 1519 1521 1524 1524 1522 1522 1522 1522 1524 1526 1527 1529 1531 1532 1533 1534 1535 1535 1536 1537 1538 1539 1539 1540 1540 1541 1541 1541 1542 1542 1542 1542 1542 1543 1544 1544 1544 1544 1543 1543 1543 1542 1542 1542 1543 1543 1544 1544 1545 1545 1545 1545 1545 1544 1545 1545 1545 1545 1546 1546 1546 1546 1546 1547 1548 1549 1550 1550 1551 1551 1551 1552 1552 1552 1552 1553 1553 1553 1553 1553 1554 1554